{"data":{"norad_id":67067,"epoch":"2026-05-25T03:50:26.746656Z","epoch_age_seconds":65155,"freshness":"FRESH","line1":"1 67067U 25295J   26145.16003179 -.00000081  00000+0  93663-4 0  9994","line2":"2 67067  49.9997 107.7402 0000858 353.8492   6.2369 13.29327470 22447","mean_motion":13.2932747,"eccentricity":8.58e-5,"inclination_deg":49.9997,"raan_deg":107.7402,"arg_perigee_deg":353.8492,"mean_anomaly_deg":6.2369,"bstar":9.3663e-5,"rev_number":2244,"period_min":108.32545271934,"perigee_km":1148.655168327,"apogee_km":1149.9468766916,"semimajor_km":7527.4380225093,"source":"CELESTRAK","updated_at":"2026-05-25T13:38:06.702875Z"}}